Date String (YYYY-MM-DD hh:mm:ss) UTC,Instrument flags,absolute air pressure of the measurement (hPa),sample flow rate (lpm),inlet stack bypass flow (lpm),air temperature of the measurement (°C),ambient temperature measured by the external sensor (°C),aerosol sample conditioner tube jacket temperature (°C),OPC LED temperature (°C),internal box temperature (°C),relative humidity of the measurement (%),span deviation,mass concentration of particles derived from Lorenz-Mie calculation of OPC scattering (μg/m³),mass concentration of particles derived from Lorenz-Mie calculation of OPC scattering (μg/m³),mass concentration of particles derived from Lorenz-Mie calculation of OPC scattering (μg/m³)
DateTimeUTC,F1_M11,P_M11,Q1_M11,Q2_M11,T1_M11,T2_M11,T3_M11,T4_M11,T5_M11,U1_M11,ZSPAN_M11,X2_M11,X0_M11,X1_M11
2023-07-01 13:00:00,SystemResetWarning,0834.7,4.99,000.00,029.7,028.3,000.0,038.2,031.1,20.1,0000.0,0002.97,0005.54,0002.55
2023-07-01 13:01:00,SystemResetWarning,0835.0,5.00,000.00,029.7,028.3,000.0,038.2,031.1,20.0,0000.0,0003.00,0005.52,0002.55
2023-07-01 13:02:00,SystemResetWarning,0834.8,5.01,000.00,029.7,028.3,000.0,038.3,031.1,20.2,0000.0,0003.00,0005.36,0002.56
2023-07-01 13:03:00,SystemResetWarning,0835.2,5.00,000.00,029.7,028.3,000.0,038.3,031.1,20.0,0000.0,0003.03,0005.35,0002.56
2023-07-01 13:04:00,SystemResetWarning,0834.9,5.01,000.00,029.7,028.3,000.0,038.3,031.1,19.9,0000.0,0003.02,0005.22,0002.56
2023-07-01 13:05:00,SystemResetWarning,0835.1,5.01,000.00,029.7,028.3,000.0,038.3,031.1,19.9,0000.0,0003.02,0005.20,0002.56
2023-07-01 13:06:00,SystemResetWarning,0835.2,5.00,000.00,029.7,028.3,000.0,038.3,031.2,19.7,0000.0,0003.00,0004.64,0002.55
2023-07-01 13:07:00,SystemResetWarning,0835.0,5.00,000.00,029.7,028.3,000.0,038.3,031.2,19.8,0000.0,0002.96,0004.50,0002.54
2023-07-01 13:08:00,SystemResetWarning,0835.2,4.99,000.00,029.7,028.4,000.0,038.3,031.2,19.9,0000.0,0002.99,0004.47,0002.54
2023-07-01 13:09:00,SystemResetWarning,0835.1,4.99,000.00,029.7,028.4,000.0,038.3,031.2,19.9,0000.0,0003.05,0004.67,0002.56
2023-07-01 13:10:00,SystemResetWarning,0835.2,5.01,000.00,029.7,028.4,000.0,038.3,031.2,20.1,0000.0,0003.07,0004.58,0002.56
2023-07-01 13:11:00,SystemResetWarning,0835.2,5.00,000.00,029.7,028.4,000.0,038.3,031.2,19.8,0000.0,0003.07,0004.40,0002.56
2023-07-01 13:12:00,SystemResetWarning,0835.2,5.00,000.00,029.7,028.4,000.0,038.3,031.2,19.4,0000.0,0003.06,0004.30,0002.58
2023-07-01 13:13:00,SystemResetWarning,0835.0,4.99,000.00,029.7,028.4,000.0,038.3,031.2,19.4,0000.0,0003.04,0004.92,0002.56
2023-07-01 13:14:00,SystemResetWarning,0834.7,4.99,000.00,029.8,028.4,000.0,038.3,031.3,20.1,0000.0,0003.00,0004.85,0002.54
2023-07-01 13:15:00,SystemResetWarning,0834.7,5.00,000.00,029.8,028.4,000.0,038.3,031.3,20.1,0000.0,0002.95,0004.74,0002.54
2023-07-01 13:16:00,SystemResetWarning,0834.7,5.00,000.00,029.8,028.5,000.0,038.3,031.3,20.5,0000.0,0002.93,0004.69,0002.54
2023-07-01 13:17:00,SystemResetWarning,0834.7,5.01,000.00,029.8,028.5,000.0,038.3,031.3,20.2,0000.0,0002.94,0004.68,0002.55
2023-07-01 13:18:00,SystemResetWarning,0834.7,5.00,000.00,029.8,028.5,000.0,038.3,031.3,20.5,0000.0,0002.94,0004.73,0002.55
2023-07-01 13:19:00,SystemResetWarning,0834.7,5.00,000.00,029.8,028.5,000.0,038.4,031.3,21.3,0000.0,0002.93,0004.70,0002.55
2023-07-01 13:20:00,SystemResetWarning,0834.7,5.00,000.00,029.8,028.5,000.0,038.4,031.3,22.7,0000.0,0002.87,0004.45,0002.54
2023-07-01 13:21:00,SystemResetWarning,0834.7,5.00,000.00,029.8,028.5,000.0,038.4,031.4,22.9,0000.0,0002.82,0005.73,0002.55
2023-07-01 13:22:00,SystemResetWarning,0834.7,5.00,000.00,029.8,028.6,000.0,038.4,031.4,22.8,0000.0,0002.79,0006.03,0002.55
2023-07-01 13:23:00,SystemResetWarning,0834.7,5.00,000.00,029.9,028.6,000.0,038.4,031.4,22.5,0000.0,0002.76,0005.90,0002.53
2023-07-01 13:24:00,SystemResetWarning,0834.8,4.99,000.00,029.9,028.6,000.0,038.4,031.4,20.9,0000.0,0002.72,0005.12,0002.53
2023-07-01 13:25:00,SystemResetWarning,0834.7,5.00,000.00,029.9,028.6,000.0,038.4,031.4,21.7,0000.0,0002.78,0005.29,0002.54
2023-07-01 13:26:00,SystemResetWarning,0834.7,5.00,000.00,029.9,028.6,000.0,038.4,031.4,21.8,0000.0,0002.78,0005.31,0002.54
2023-07-01 13:27:00,SystemResetWarning,0834.7,5.00,000.00,029.9,028.6,000.0,038.4,031.4,21.5,0000.0,0002.77,0005.28,0002.53
2023-07-01 13:28:00,SystemResetWarning,0834.8,5.00,000.00,029.9,028.6,000.0,038.4,031.4,21.6,0000.0,0002.81,0005.39,0002.54
2023-07-01 13:29:00,SystemResetWarning,0834.8,5.00,000.00,029.9,028.6,000.0,038.5,031.4,22.3,0000.0,0002.84,0005.40,0002.55
2023-07-01 13:30:00,SystemResetWarning,0834.8,5.00,000.00,029.9,028.6,000.0,038.5,031.5,22.2,0000.0,0002.84,0005.94,0002.57
2023-07-01 13:31:00,SystemResetWarning,0834.7,5.01,000.00,029.9,028.7,000.0,038.5,031.5,20.6,0000.0,0002.83,0006.25,0002.58
2023-07-01 13:32:00,SystemResetWarning,0834.7,5.00,000.00,030.0,028.7,000.0,038.5,031.5,20.2,0000.0,0002.84,0005.14,0002.57
2023-07-01 13:33:00,SystemResetWarning,0834.8,4.99,000.00,030.0,028.7,000.0,038.5,031.5,20.3,0000.0,0002.87,0004.59,0002.57
2023-07-01 13:34:00,SystemResetWarning,0834.8,5.00,000.00,030.0,028.7,000.0,038.5,031.5,20.4,0000.0,0002.90,0004.75,0002.57
2023-07-01 13:35:00,SystemResetWarning,0834.7,4.99,000.00,030.0,028.7,000.0,038.5,031.5,19.0,0000.0,0002.90,0004.76,0002.56
2023-07-01 13:36:00,SystemResetWarning,0834.8,5.00,000.00,030.0,028.7,000.0,038.5,031.5,19.6,0000.0,0002.87,0004.66,0002.56
2023-07-01 13:37:00,SystemResetWarning,0835.0,5.00,000.00,030.0,028.7,000.0,038.5,031.5,19.7,0000.0,0002.87,0004.62,0002.57
2023-07-01 13:38:00,SystemResetWarning,0835.4,5.00,000.00,030.0,028.7,000.0,038.5,031.5,19.4,0000.0,0002.90,0004.80,0002.58
2023-07-01 13:39:00,SystemResetWarning,0835.3,5.00,000.00,030.0,028.7,000.0,038.5,031.6,20.4,0000.0,0002.88,0004.82,0002.56
2023-07-01 13:40:00,SystemResetWarning,0835.4,5.00,000.00,030.0,028.7,000.0,038.6,031.6,19.7,0000.0,0002.84,0004.73,0002.56
2023-07-01 13:41:00,SystemResetWarning,0835.1,5.01,000.00,030.0,028.8,000.0,038.6,031.6,21.0,0000.0,0002.81,0004.46,0002.54
2023-07-01 13:42:00,SystemResetWarning,0834.9,5.00,000.00,030.1,028.8,000.0,038.6,031.6,22.0,0000.0,0002.81,0003.72,0002.52
2023-07-01 13:43:00,SystemResetWarning,0834.8,5.00,000.00,030.1,028.8,000.0,038.6,031.6,20.7,0000.0,0002.81,0003.69,0002.52
2023-07-01 13:44:00,SystemResetWarning,0834.9,5.00,000.00,030.1,028.8,000.0,038.6,031.6,21.7,0000.0,0002.82,0003.63,0002.54
2023-07-01 13:45:00,SystemResetWarning,0834.9,5.00,000.00,030.1,028.8,000.0,038.6,031.6,20.2,0000.0,0002.76,0003.39,0002.53
2023-07-01 13:46:00,SystemResetWarning,0835.0,5.00,000.00,030.1,028.8,000.0,038.6,031.6,20.4,0000.0,0002.80,0003.51,0002.55
2023-07-01 13:47:00,SystemResetWarning,0835.0,5.00,000.00,030.1,028.8,000.0,038.6,031.6,20.5,0000.0,0002.81,0003.60,0002.55
2023-07-01 13:48:00,SystemResetWarning,0835.0,5.00,000.00,030.1,028.8,000.0,038.6,031.6,21.9,0000.0,0002.84,0003.71,0002.55
2023-07-01 13:49:00,SystemResetWarning,0835.0,5.00,000.00,030.1,028.9,000.0,038.6,031.7,23.1,0000.0,0002.86,0003.82,0002.56
2023-07-01 13:50:00,SystemResetWarning,0835.1,5.00,000.00,030.1,028.9,000.0,038.7,031.7,24.0,0000.0,0002.89,0003.84,0002.56
2023-07-01 13:51:00,SystemResetWarning,0835.1,5.00,000.00,030.2,028.9,000.0,038.7,031.7,25.3,0000.0,0002.90,0004.76,0002.57
2023-07-01 13:52:00,SystemResetWarning,0835.1,5.00,000.00,030.2,028.9,000.0,038.7,031.7,24.9,0000.0,0002.95,0005.56,0002.58
2023-07-01 13:53:00,SystemResetWarning,0835.1,5.00,000.00,030.2,028.9,000.0,038.7,031.7,25.8,0000.0,0002.99,0006.29,0002.59
2023-07-01 13:54:00,SystemResetWarning,0835.2,5.00,000.00,030.2,029.0,000.0,038.7,031.7,25.6,0000.0,0003.01,0006.34,0002.60
2023-07-01 13:55:00,SystemResetWarning,0835.2,5.00,000.00,030.2,028.6,000.0,038.6,031.8,25.6,0000.0,0003.02,0006.53,0002.60
2023-07-01 13:56:00,SystemResetWarning,0835.2,5.00,000.00,030.2,026.8,000.0,038.5,031.6,24.9,0000.0,0003.06,0006.67,0002.61
2023-07-01 13:57:00,SystemResetWarning,0835.1,5.00,000.00,030.1,026.0,000.0,038.4,031.4,24.7,0000.0,0003.07,0006.68,0002.62
2023-07-01 13:58:00,SystemResetWarning,0835.1,5.01,000.00,030.0,026.2,000.0,038.4,031.2,25.3,0000.0,0003.09,0006.60,0002.64
2023-07-01 13:59:00,SystemResetWarning,0835.1,5.00,000.00,029.9,026.5,000.0,038.5,031.1,23.3,0000.0,0003.08,0006.57,0002.65
